Regional Weather Roundup
Issued by NWS

Home | Current Version | Previous Version | Text Only | Print | Product List | Glossary On
Versions: 1 2 3 4 5 6 7 8 9 10 11 12 13 14 15 16 17 18 19 20 21 22 23 24 25 26 27 28 29 30 31 32 33 34 35 36 37 38 39 40 41 42 43 44 45 46 47 48 49 50
997
ASUS44 KJAN 221810
RWRMS

MISSISSIPPI HOURLY WEATHER ROUNDUP
NATIONAL WEATHER SERVICE JACKSON MS
1200 PM CST MON DEC 22 2014

NOTE: "FAIR: INDICATES FEW OR NO CLOUDS BELOW 12,000 FEET WITH NO
SIGNIFICANT WEATHER AND/OR OBSTRUCTIONS TO VISIBILITY.

MSZ001>002-007>008-010>013-018>021-025>028-034>036-221900-
NORTHWEST MISSISSIPPI

CITY           SKY/WX    TMP DP  RH WIND       PRES   REMARKS
CLARKSDALE     CLOUDY    57  55  94 S14       29.73F
CLEVELAND      CLOUDY    58  56  91 S14       29.71F
GREENWOOD      CLOUDY    59  54  83 S14       29.75F
6HR MIN TEMP:  52; 6HR MAX TEMP:  59;

GREENVILLE     CLOUDY    59  54  83 S13       29.71F
6HR MIN TEMP:  51; 6HR MAX TEMP:  59;

GRENADA        CLOUDY    55  54  94 S9        29.77F
OLIVE BRANCH   CLOUDY    54  54 100 S12       29.74F
OXFORD         CLOUDY    52  50  93 SE8       29.78F FOG
TUNICA         CLOUDY    55  52  88 S16       29.73F
$$

MSZ003>006-009-014>017-022>024-029>033-037>039-221900-
NORTHEAST MISSISSIPPI

CITY           SKY/WX    TMP DP  RH WIND       PRES   REMARKS
COLUMBUS AFB   NOT AVBL
CORINTH        CLOUDY    54  50  87 SE10      29.78F
GOLDN TRIANGLE CLOUDY    54  52  94 SE9       29.81F FOG
STARKVILLE     CLOUDY    52  52 100 SE7       29.80F FOG
TUPELO         CLOUDY    53  50  89 S8        29.79F FOG
6HR MIN TEMP:  51; 6HR MAX TEMP:  53; 6HR PCP: TRACE;

$$

MSZ040-058-221900-
CENTRAL MISSISSIPPI

CITY           SKY/WX    TMP DP  RH WIND       PRES   REMARKS
JACKSON INTL   CLOUDY    58  56  93 SE9       29.76F FOG
6HR MIN TEMP:  53; 6HR MAX TEMP:  60;

JACKSON HAWKNS CLOUDY    60  56  86 SE7       29.76F
6HR MIN TEMP:  52; 6HR MAX TEMP:  60;

MERIDIAN KEY   CLOUDY    58  56  93 SE8       29.80F FOG
6HR MIN TEMP:  52; 6HR MAX TEMP:  58; 6HR PCP:  0.01;

MERIDIAN NAS   CLOUDY    56  55  97 SE3       29.81F FOG
6HR MIN TEMP:  52; 6HR MAX TEMP:  55; 6HR PCP:  0.05;

RAYMOND        CLOUDY    61  55  82 SE6       29.75F
VICKSBURG      CLOUDY    60  57  89 SE7       29.73F
6HR MIN TEMP:  52; 6HR MAX TEMP:  60;

$$

MSZ059>079-221900-
SOUTH MISSISSIPPI

CITY           SKY/WX    TMP DP  RH WIND       PRES   REMARKS
HATTIESBURG    CLOUDY    63  61  93 SE8       29.79F
6HR MIN TEMP:  54; 6HR MAX TEMP:  63; 6HR PCP: TRACE;

MCCOMB         CLOUDY    63  61  93 S6        29.76F FOG
6HR MIN TEMP:  54; 6HR MAX TEMP:  63;

NATCHEZ        CLOUDY    63  59  88 SE9       29.73F
6HR MIN TEMP:  54; 6HR MAX TEMP:  63;

PINE BELT      CLOUDY    61  57  88 SE7       29.79F
6HR MIN TEMP:  54; 6HR MAX TEMP:  61; 6HR PCP:  0.01;

$$

MSZ080>082-221900-
COASTAL MISSISSIPPI

CITY           SKY/WX    TMP DP  RH WIND       PRES   REMARKS
BAY ST LOUIS   CLOUDY    64  61  88 SE6       29.79F FOG
BILOXI         NOT AVBL
PASCAGOULA     CLOUDY    69  64  84 SE15      29.79F
6HR MIN TEMP:  58; 6HR MAX TEMP:  69; 6HR PCP:  0.03;

GULFPORT       CLOUDY    65  63  93 SE9       29.79F
6HR MIN TEMP:  58; 6HR MAX TEMP:  65; 6HR PCP:  0.52;

$$



USA.gov is the U.S. government's official web portal to all federal, state and local government web resources and services.